Tracking 27107 objects as of 20-Mar-2023
HD Live streaming from Space Station
objects crossing your sky now

PSLV DEB

Track PSLV DEB now!
10-day predictions


NORAD ID: 27152
Int'l Code: 2001-049CY
Perigee: 592.5 km
Apogee: 639.0 km
Inclination: 98.1 °
Period: 96.9 minutes
Semi major axis: 6986 km
RCS: 0.063 m2 (small)
Launch date: October 22, 2001
Source: India (IND)
Launch site: SRIHARIKOTA (SRI)

Note: This is SATELLITE DEBRIS
Your satellite tracking list
Your tracking list is empty




NASA's NSSDC Master Catalog

Two Line Element Set (TLE):
1 27152U 01049CY  23079.09741805  .00005559  00000-0  62726-3 0  9996
2 27152  98.1057 121.5304 0033288 342.5926  17.4144 14.86581383143747
Source of the keplerian elements: AFSPC